Baton Rouge, LA

9:19 PM CST on December 05, 2019 (GMT -0600)
Baton Rouge Metro-Ryan

Weather History for KBTR - August, 2019

Change the Weather History Date:

Thursday, August 29, 2019

  Actual Average Record
Temperature  
Mean Temperature 84 °F 82 °F  
Max Temperature 94 °F 92 °F 100 °F (1998)
Min Temperature 73 °F 73 °F 59 °F (1992)
Degree Days  
Heating Degree Days 0 0  
Month to date heating degree days 0 0  
Since 1 June heating degree days 0 0  
Since 1 July heating degree days 0 0  
Cooling Degree Days 19 17  
Month to date cooling degree days 567 520  
Year to date cooling degree days 2301 2125  
Since 1 June cooling degree days 1630 1560  
Growing Degree Days 33 (Base 50)    
Moisture  
Dew Point 72 °F    
Average Humidity 70    
Maximum Humidity 93    
Minimum Humidity 46    
Precipitation  
Precipitation T in 0.17 in 4.52 in (2012)
Month to date precipitation 7.79 5.47  
Year to date precipitation 49.21 41.36  
Snow  
Snow 0.00 in - - ()
Month to date snowfall 0.0  
Since 1 June snowfall 0.0  
Since 1 July snowfall 0.0  
Snow Depth 0.00 in    
Sea Level Pressure  
Sea Level Pressure 30.02 in    
Wind  
Wind Speed 4 mph (NNE)    
Max Wind Speed 10 mph    
Max Gust Speed 13 mph    
Visibility 10 miles    
Events      
T = Trace of Precipitation, MM = Missing Value Source: NWS Daily Summary

Daily Weather History Graph

Daily Weather History Graph

Search for Another Location

Airport or City:

Astronomy

Aug. 29, 2019 Rise Set
Actual Time 6:39 AM CDT 7:31 PM CDT
Civil Twilight 6:14 AM CDT 7:55 PM CDT
Nautical Twilight 5:45 AM CDT 8:24 PM CDT
Astronomical Twilight 5:15 AM CDT 8:54 PM CDT
Moon 5:33 AM CDT (8/29) 7:22 PM CDT (8/29)
Length of Visible Light 13h 41m
Length of Day
12h 51m
Waning Crescent, 1% of the Moon is Illuminated
Aug 29
Waning Crescent
Aug 30
New
Sep 5
First Quarter
Sep 13
Full
Sep 21
Last Quarter

Hourly Weather History & Observations

Time (CDT) Temp. Heat Index Dew Point Humidity Pressure Visibility Wind Dir Wind Speed Gust Speed Precip Events Conditions
12:53 AM 73.9 °F - 71.1 °F 91% 30.00 in 10.0 mi West 3.5 mph - N/A   Clear
1:53 AM 73.9 °F - 72.0 °F 93% 29.99 in 7.0 mi Calm Calm - 0.00 in   Clear
2:53 AM 73.9 °F - 71.1 °F 91% 29.99 in 8.0 mi North 3.5 mph - N/A   Clear
3:53 AM 73.0 °F - 71.1 °F 93% 30.00 in 10.0 mi Calm Calm - N/A   Clear
4:53 AM 73.0 °F - 71.1 °F 93% 30.01 in 10.0 mi Calm Calm - N/A   Clear
5:53 AM 73.0 °F - 71.1 °F 93% 30.02 in 10.0 mi Calm Calm - N/A   Clear
6:53 AM 73.0 °F - 71.1 °F 93% 30.04 in 9.0 mi Calm Calm - N/A   Clear
7:53 AM 77.0 °F - 72.0 °F 84% 30.06 in 10.0 mi NE 4.6 mph - N/A   Clear
8:53 AM 80.1 °F 83.8 °F 72.0 °F 76% 30.07 in 10.0 mi NE 8.1 mph - N/A   Clear
9:53 AM 84.0 °F 90.2 °F 73.0 °F 69% 30.07 in 10.0 mi East 5.8 mph - N/A   Clear
10:53 AM 86.0 °F 92.2 °F 72.0 °F 63% 30.08 in 10.0 mi East 4.6 mph - N/A   Clear
11:53 AM 90.0 °F 97.9 °F 73.0 °F 57% 30.06 in 10.0 mi NE 8.1 mph - N/A   Clear
1:53 PM 90.0 °F 97.9 °F 73.0 °F 57% 30.03 in 10.0 mi NNW 3.5 mph - N/A   Mostly Cloudy
2:53 PM 93.0 °F 103.2 °F 73.9 °F 54% 30.00 in 10.0 mi North 6.9 mph - N/A   Clear
3:53 PM 91.0 °F 98.2 °F 72.0 °F 53% 29.99 in 10.0 mi North 6.9 mph - N/A   Scattered Clouds
4:53 PM 93.0 °F 99.0 °F 70.0 °F 47% 29.98 in 10.0 mi NE 6.9 mph - N/A   Clear
5:53 PM 91.0 °F 97.6 °F 71.1 °F 52% 29.98 in 10.0 mi NNE 9.2 mph - N/A   Clear
6:53 PM 88.0 °F 94.7 °F 72.0 °F 59% 29.99 in 10.0 mi NNE 5.8 mph - N/A   Clear
7:53 PM 82.9 °F 90.2 °F 75.0 °F 77% 30.00 in 10.0 mi Calm Calm - N/A   Clear
8:53 PM 81.0 °F 86.7 °F 75.0 °F 82% 30.00 in 10.0 mi NE 3.5 mph - N/A   Clear
10:53 PM 78.1 °F - 73.9 °F 87% 30.03 in 10.0 mi Calm Calm - N/A   Clear
11:53 PM 77.0 °F - 73.0 °F 88% 30.03 in 10.0 mi NE 3.5 mph - N/A   Clear